TimePST,TemperatureF,Dew PointF,Humidity,Sea Level PressureIn,VisibilityMPH,Wind Direction,Wind SpeedMPH,Gust SpeedMPH,PrecipitationIn,Events,Conditions,WindDirDegrees,DateUTC
12:16 AM,28.4,24.8,86,30.59,3.0,Calm,Calm,-,N/A,,Overcast,0,2013-01-17 08:16:00
12:53 AM,28.0,24.1,85,30.64,4.0,Calm,Calm,-,N/A,,Overcast,0,2013-01-17 08:53:00
1:53 AM,28.0,24.1,85,30.64,4.0,West,4.6,-,N/A,,Overcast,260,2013-01-17 09:53:00
2:22 AM,28.4,24.8,86,30.59,3.0,WSW,3.5,-,N/A,,Overcast,250,2013-01-17 10:22:00
2:53 AM,28.0,24.1,85,30.64,3.0,Calm,Calm,-,N/A,,Overcast,0,2013-01-17 10:53:00
3:53 AM,28.0,24.1,85,30.63,5.0,Calm,Calm,-,N/A,,Overcast,0,2013-01-17 11:53:00
4:53 AM,28.0,23.0,81,30.62,5.0,Calm,Calm,-,N/A,,Haze,0,2013-01-17 12:53:00
5:53 AM,28.0,23.0,81,30.61,5.0,Calm,Calm,-,N/A,,Haze,0,2013-01-17 13:53:00
6:53 AM,28.0,24.1,85,30.62,5.0,Calm,Calm,-,N/A,,Overcast,0,2013-01-17 14:53:00
7:53 AM,28.0,23.0,81,30.63,5.0,South,3.5,-,N/A,,Haze,190,2013-01-17 15:53:00
8:53 AM,28.0,23.0,81,30.63,3.0,Calm,Calm,-,N/A,,Haze,0,2013-01-17 16:53:00
9:00 AM,28.4,24.8,86,30.59,2.5,Calm,Calm,-,N/A,,Overcast,0,2013-01-17 17:00:00
9:53 AM,28.0,24.1,85,30.64,2.5,Calm,Calm,-,N/A,,Overcast,0,2013-01-17 17:53:00
10:53 AM,28.0,23.0,81,30.62,3.0,Calm,Calm,-,N/A,,Haze,0,2013-01-17 18:53:00
11:53 AM,28.0,24.1,85,30.59,3.0,Calm,Calm,-,N/A,,Overcast,0,2013-01-17 19:53:00
12:53 PM,28.0,23.0,81,30.57,3.0,Calm,Calm,-,N/A,,Haze,0,2013-01-17 20:53:00
1:53 PM,28.0,23.0,81,30.55,6.0,SSW,3.5,-,N/A,,Haze,200,2013-01-17 21:53:00
2:53 PM,28.0,23.0,81,30.53,6.0,South,3.5,-,N/A,,Haze,170,2013-01-17 22:53:00
3:53 PM,28.0,24.1,85,30.53,5.0,Calm,Calm,-,N/A,,Overcast,0,2013-01-17 23:53:00
4:53 PM,28.0,23.0,81,30.53,6.0,SW,3.5,-,N/A,,Haze,230,2013-01-18 00:53:00
5:53 PM,28.0,23.0,81,30.53,6.0,SW,5.8,-,N/A,,Haze,220,2013-01-18 01:53:00
6:53 PM,28.0,23.0,81,30.52,6.0,West,3.5,-,N/A,,Haze,270,2013-01-18 02:53:00
7:53 PM,28.0,23.0,81,30.52,6.0,WSW,4.6,-,0.00,,Haze,240,2013-01-18 03:53:00
8:53 PM,28.0,21.9,78,30.50,7.0,WSW,4.6,-,N/A,,Overcast,250,2013-01-18 04:53:00
9:53 PM,28.0,23.0,81,30.47,6.0,WSW,3.5,-,N/A,,Haze,240,2013-01-18 05:53:00
10:16 PM,28.4,23.0,80,30.41,5.0,WSW,3.5,-,N/A,,Haze,250,2013-01-18 06:16:00
10:45 PM,28.4,23.0,80,30.40,5.0,Calm,Calm,-,N/A,,Haze,0,2013-01-18 06:45:00
10:53 PM,28.0,23.0,81,30.45,5.0,Calm,Calm,-,N/A,,Haze,0,2013-01-18 06:53:00
11:53 PM,28.0,23.0,81,30.45,7.0,Calm,Calm,-,N/A,,Overcast,0,2013-01-18 07:53:00